Location: Newark
(45.1000°N, 8.5833°E)
Time: 21:29:25
(UTC+00:00)

ISS - Pass Details

Date: 19 September 2019
Orbit: 411 x 421 km, 51.6° (Epoch: 17 October)

Event Time Altitude Azimuth Distance (km) Brightness Sun altitude
Rises 18:34:33 0° 207° (SSW) 2,329 0.2 -12.1°
Reaches altitude 10° 18:36:52 10° 193° (SSW) 1,471 -1.0 -12.5°
Maximum altitude 18:39:34 24° 138° (SE) 908 -2.5 -13.0°
Enters shadow 18:40:00 23° 125° (SE) 927 -2.6 -13.1°
